Location: Gowrie
(35.4119°S, 149.1090°E)
Time: 15:11:27
(UTC+10:00)

ISS - Visible Passes

Search period start: 30 April 2017 00:00
Search period end: 10 May 2017 00:00
Orbit: 401 x 409 km, 51.6° (Epoch: 30 April)

Date Brightness Start Highest point End Pass type
(mag) Time Alt. Az. Time Alt. Az. Time Alt. Az.
30 Apr -2.9 18:35:28 10° WNW 18:38:41 46° SW 18:40:22 24° SSE visible
01 May -3.8 17:43:16 10° NW 17:46:35 84° NE 17:49:57 10° SE visible
01 May -1.0 19:21:40 10° WSW 19:23:19 14° SSW 19:23:19 14° SSW visible
02 May -1.6 18:28:30 10° W 18:31:09 21° SSW 18:33:28 12° SSE visible
04 May -1.0 18:22:23 10° SW 18:23:43 12° SSW 18:25:04 10° S visible
